Home   Weather   Fairfield Mountain   Past weeks
Flag for USA

Past Weather in Fairfield Mountain, North Carolina, USA — Yesterday and Last 2 Weeks

Now
39 °F

Overcast.


Feels Like: 39 °F
Forecast: 54 / 40 °F
Wind: No wind

Location: Asheville Regional Airport

Current Time: Dec 6, 2019 at 11:09:52 am

Latest Report: Dec 6, 2019 at 8:54 am


Visibility: 10 mi

Pressure: 30.22 "Hg

Humidity: 65%

Dew Point: 28 °F

Location of Fairfield MountainLocation

Past Weather in Fairfield Mountain — Graph

°F

Fairfield Mountain Temperature Yesterday

Maximum temperature yesterday: 58 °F (at 2:54 pm)
Minimum temperature yesterday: 32 °F (at 11:54 pm)
Average temperature yesterday: 46 °F

High & Low Weather Summary for the Past Weeks

 TemperatureHumidityPressure
High76 °F (Nov 27, 2:54 pm)93% (Nov 23, 1:54 am)30.31 "Hg (Nov 23, 1:54 am)
Low31 °F (Nov 25, 6:54 am)16% (Nov 27, 3:54 pm)29.45 "Hg (Dec 1, 1:54 pm)
Average47 °F64%29.93 "Hg
* Reported Nov 21 8:54 am — Dec 6 8:54 am, Fairfield Mountain. Weather by CustomWeather, © 2019

Note: Actual official high and low records may vary slightly from our data, if they occured in-between our weather recording intervals... More about our weather records

Fairfield Mountain Weather History for the Previous 24 Hours

Scroll right to see more
 ConditionsComfort  
Time TempWeatherWind HumidityBarometerVisibility
8:54 am
Fri, Dec 6
39 °FOvercast.No wind65%30.22 "Hg10 mi
7:54 am37 °FOvercast.3 mph73%30.19 "Hg10 mi
6:54 am37 °FOvercast.No wind70%30.19 "Hg10 mi
5:54 am37 °FOvercast.No wind70%30.19 "Hg10 mi
4:54 am35 °FOvercast.No wind72%30.18 "Hg10 mi
3:54 am34 °FOvercast.No wind76%30.18 "Hg10 mi
2:54 am34 °FOvercast.No wind73%30.19 "Hg10 mi
1:54 am33 °FPassing clouds.No wind72%30.19 "Hg10 mi
12:54 am33 °FClear.No wind70%30.19 "Hg10 mi
11:54 pm
Thu, Dec 5
32 °FClear.No wind73%30.20 "Hg10 mi
10:54 pm34 °FClear.No wind67%30.20 "Hg10 mi
9:54 pm35 °FClear.No wind59%30.19 "Hg10 mi
8:54 pm36 °FClear.No wind57%30.19 "Hg10 mi
7:54 pm42 °FClear.No wind43%30.18 "Hg10 mi
6:54 pm45 °FClear.No wind35%30.16 "Hg10 mi
5:54 pm51 °FClear.No wind23%30.13 "Hg10 mi
4:54 pm55 °FSunny.9 mph18%30.11 "Hg10 mi
3:54 pm57 °FSunny.9 mph17%30.08 "Hg10 mi
2:54 pm58 °FSunny.9 mph21%30.07 "Hg10 mi
1:54 pm57 °FSunny.8 mph24%30.06 "Hg10 mi
12:54 pm55 °FSunny.5 mph27%30.07 "Hg10 mi
11:54 am52 °FSunny.8 mph34%30.09 "Hg10 mi
Weather by CustomWeather, © 2019

See weather overview

Advertising